Tracking 17155 objects as of 29-July-2015
HD Live streaming from Space Station

GORIZONT 30

Track GORIZONT 30 now!
GORIZONT 30 is classified as:


NORAD ID: 23108
Int'l Code: 1994-030A
Perigee: 35,770.0 km
Apogee: 35,822.2 km
Inclination: 14.2 °
Period: 1,436.2 minutes
Semi major axis: 42167 km
RCS: 12.5892 m2 (large)
Launch date: May 20, 1994
Source: Commonwealth of Independent States (former USSR) (CIS)
Your satellite tracking list
Your tracking list is empty





NASA's NSSDC Master Catalog

Two Line Element Set (TLE):
1 23108U 94030A   15208.26080067 -.00000145  00000-0  00000+0 0  9995
2 23108 014.2206 024.0490 0006181 159.7353 199.6716 01.00263398 77600

Source of the keplerian elements: AFSPC

N2YO: 365